Location: Corralito
(10.2667°N, 66.9500°W)
Time: 13:58:20
(UTC+00:00)

Sakura Rocket - Visible Passes

Search period start: 01 December 2023 00:00
Search period end: 11 December 2023 00:00
Orbit: 475 x 1723 km, 28.7° (Epoch: 29 November)

Date Brightness Start Highest point End Pass type
(mag) Time Alt. Az. Time Alt. Az. Time Alt. Az.
01 Dec 3.5 09:11:44 38° NW 09:12:19 40° NNW 09:16:08 10° NE visible
02 Dec 5.0 08:25:46 23° NE 08:25:46 23° NE 08:27:22 10° NE visible
03 Dec 4.6 09:26:53 19° NNW 09:27:18 19° NNW 09:30:24 10° NNE visible
04 Dec 5.2 08:40:40 17° NNE 08:40:40 17° NNE 08:41:53 10° NNE visible
05 Dec 5.2 09:41:34 11° NNW 09:42:30 11° NNW 09:43:55 10° N visible
06 Dec 5.5 08:55:11 13° N 08:55:11 13° N 08:56:04 10° NNE visible
08 Dec 7.1 01:24:44 10° SSE 01:25:41 10° SSE 01:25:41 10° SSE visible
08 Dec 5.6 09:09:20 11° N 09:09:20 11° N 09:09:59 10° N visible
09 Dec 7.2 02:24:23 10° SSW 02:25:46 13° SSW 02:25:46 13° SSW visible
10 Dec 6.8 01:34:45 10° SSW 01:38:43 18° S 01:38:43 18° S visible
